Watertown, NY

6:51 PM EST on December 14, 2017 (GMT -0500)
Watertown International

Weather History for KART - April, 2013

Change the Weather History Date:

Wednesday, April 24, 2013

  Actual Average Record
Temperature  
Mean Temperature 55 °F 47 °F  
Max Temperature 69 °F 59 °F 78 °F (1957)
Min Temperature 40 °F 36 °F 18 °F (1972)
Degree Days  
Heating Degree Days 10 18  
Month to date heating degree days 544 537  
Since 1 July heating degree days 6402 7044  
Cooling Degree Days 0 0  
Month to date cooling degree days 0 0  
Year to date cooling degree days 0 0  
Growing Degree Days 4 (Base 50)    
Moisture  
Dew Point 43 °F    
Average Humidity 66    
Maximum Humidity 93    
Minimum Humidity 39    
Precipitation  
Precipitation 0.35 in 0.10 in 0.76 in (1970)
Month to date precipitation 3.52 2.32  
Year to date precipitation 8.81 9.50  
Sea Level Pressure  
Sea Level Pressure 29.77 in    
Wind  
Wind Speed 11 mph (SSW)    
Max Wind Speed 31 mph    
Max Gust Speed 45 mph    
Visibility 9 miles    
Events Rain    
T = Trace of Precipitation, MM = Missing Value Source: NWS Daily Summary

Daily Weather History Graph

Daily Weather History Graph

Search for Another Location

Airport or City:

Trip Planner

Search our weather history database for the weather conditions in past years. The results will help you decide how hot, cold, wet, or windy it might be!

Date:

Astronomy

Apr. 24, 2013 Rise Set
Actual Time 6:05 AM EDT 7:59 PM EDT
Civil Twilight 5:34 AM EDT 8:30 PM EDT
Nautical Twilight 4:57 AM EDT 9:08 PM EDT
Astronomical Twilight 4:16 AM EDT 9:49 PM EDT
Moon 6:58 PM EDT (4/24) 5:10 AM EDT (4/24)
Length of Visible Light 14h 55m
Length of Day
13h 53m
Waxing Gibbous, 98% of the Moon is Illuminated
Apr 24
Waxing Gibbous
Apr 25
Full
May 2
Last Quarter
May 9
New
May 18
First Quarter

Hourly Weather History & Observations

Time (EDT) Temp. Windchill Dew Point Humidity Pressure Visibility Wind Dir Wind Speed Gust Speed Precip Events Conditions
12:56 AM 51.1 °F - 39.9 °F 66% 29.99 in 10.0 mi SSE 10.4 mph 19.6 mph N/A   Clear
1:56 AM 50.0 °F - 39.9 °F 68% 29.97 in 10.0 mi South 8.1 mph - N/A   Clear
2:56 AM 50.0 °F - 39.9 °F 68% 29.94 in 10.0 mi SSE 9.2 mph - N/A   Clear
3:56 AM 48.9 °F - 39.0 °F 69% 29.92 in 10.0 mi Calm Calm - N/A   Clear
4:56 AM 50.0 °F - 39.0 °F 66% 29.91 in 10.0 mi SSE 8.1 mph - N/A   Clear
5:56 AM 50.0 °F - 39.0 °F 66% 29.90 in 10.0 mi SSE 9.2 mph 18.4 mph N/A   Clear
6:56 AM 52.0 °F - 39.0 °F 61% 29.88 in 10.0 mi Variable 6.9 mph 18.4 mph N/A   Mostly Cloudy
7:56 AM 54.0 °F - 37.9 °F 55% 29.87 in 10.0 mi Variable 6.9 mph 16.1 mph N/A   Overcast
8:56 AM 55.9 °F - 39.0 °F 53% 29.88 in 10.0 mi SW 4.6 mph - N/A   Overcast
9:56 AM 57.9 °F - 39.0 °F 49% 29.85 in 10.0 mi South 6.9 mph - N/A   Overcast
10:56 AM 62.1 °F - 41.0 °F 46% 29.81 in 10.0 mi SSE 9.2 mph 16.1 mph N/A   Overcast
11:56 AM 64.0 °F - 41.0 °F 43% 29.76 in 10.0 mi South 10.4 mph 18.4 mph N/A   Partly Cloudy
12:56 PM 68.0 °F - 43.0 °F 40% 29.73 in 10.0 mi SSW 10.4 mph 16.1 mph N/A   Overcast
1:56 PM 68.0 °F - 45.0 °F 43% 29.70 in 10.0 mi South 10.4 mph 18.4 mph N/A   Overcast
2:56 PM 66.0 °F - 46.9 °F 50% 29.68 in 10.0 mi SSW 15.0 mph 23.0 mph 0.00 in Rain Light Rain
3:56 PM 62.1 °F - 53.1 °F 72% 29.66 in 10.0 mi SSE 5.8 mph - 0.02 in   Mostly Cloudy
4:56 PM 64.0 °F - 54.0 °F 70% 29.63 in 9.0 mi South 9.2 mph 19.6 mph 0.00 in Rain Light Rain
5:56 PM 64.9 °F - 53.1 °F 65% 29.60 in 10.0 mi SSW 15.0 mph 26.5 mph 0.02 in Rain Light Rain
6:56 PM 64.0 °F - 53.1 °F 67% 29.59 in 10.0 mi South 8.1 mph - 0.00 in Rain Light Rain
7:56 PM 62.1 °F - 54.0 °F 75% 29.58 in 10.0 mi SSW 16.1 mph 27.6 mph 0.02 in Rain Light Rain
8:09 PM 53.6 °F - 48.2 °F 82% 29.63 in 9.0 mi WSW 20.7 mph 36.8 mph 0.02 in Rain Light Rain
8:23 PM 50.0 °F - 48.2 °F 94% 29.66 in 2.5 mi WSW 15.0 mph 27.6 mph 0.08 in Rain Heavy Rain
8:32 PM 50.0 °F - 46.4 °F 87% 29.66 in 4.0 mi WSW 17.3 mph 31.1 mph 0.11 in Rain Rain
8:46 PM 48.2 °F - 46.4 °F 93% 29.67 in 4.0 mi SW 18.4 mph 28.8 mph 0.16 in Rain Heavy Rain
8:56 PM 46.9 °F - 45.0 °F 93% 29.69 in 4.0 mi SW 19.6 mph 33.4 mph 0.20 in Rain Rain
9:04 PM 46.4 °F 39.5 °F 42.8 °F 87% 29.70 in 4.0 mi SW 17.3 mph 36.8 mph 0.03 in Rain Rain
9:56 PM 42.1 °F 33.1 °F 39.9 °F 92% 29.78 in 7.0 mi SW 20.7 mph 29.9 mph 0.07 in Rain Rain
10:52 PM 39.2 °F 28.5 °F 37.4 °F 93% 29.81 in 10.0 mi SW 24.2 mph 39.1 mph 0.02 in   Overcast
10:56 PM 39.9 °F 29.7 °F 37.0 °F 89% 29.82 in 10.0 mi WSW 23.0 mph 39.1 mph 0.02 in   Overcast
11:56 PM 39.9 °F 30.5 °F 36.0 °F 86% 29.86 in 10.0 mi WSW 19.6 mph 38.0 mph N/A   Overcast